Weather History for CYYZ - December, 2013

Change the Weather History Date:

Sunday, December 1, 2013

  Actual Average Record
Temperature  
Mean Temperature 35 °F -  
Max Temperature 37 °F 33 °F 53 °F (1996)
Min Temperature 33 °F 19 °F 12 °F (2007)
Degree Days  
Heating Degree Days 30    
Moisture  
Dew Point 32 °F    
Average Humidity 84    
Maximum Humidity 93    
Minimum Humidity 63    
Precipitation  
Precipitation 0.04 in 0.09 in - ()
Sea Level Pressure  
Sea Level Pressure 30.03 in    
Wind  
Wind Speed 4 mph ()    
Max Wind Speed 8 mph    
Max Gust Speed -    
Visibility 8.6 miles    
Events Rain    
Averages and records for this station are not official NWS values.
T = Trace of Precipitation, MM = Missing Value Source: Averaged Metar Reports

Daily Weather History Graph

Daily Weather History Graph

Search for Another Location

Airport or City:

Trip Planner

Search our weather history database for the weather conditions in past years. The results will help you decide how hot, cold, wet, or windy it might be!

Date:

Astronomy

Dec. 01, 2013 Rise Set
Actual Time 7:32 AM EST 4:42 PM EST
Civil Twilight 7:00 AM EST 5:14 PM EST
Nautical Twilight 6:24 AM EST 5:50 PM EST
Astronomical Twilight 5:49 AM EST 6:25 PM EST
Moon 5:46 AM EST (12/1) 3:53 PM EST (12/1)
Length of Visible Light 10h 14m
Length of Day
9h 10m
Waning Crescent, 2% of the Moon is Illuminated
Dec 1
Waning Crescent
Dec 2
New
Dec 9
First Quarter
Dec 17
Full
Dec 25
Last Quarter

Hourly Weather History & Observations

Time (EST) Temp. Windchill Dew Point Humidity Pressure Visibility Wind Dir Wind Speed Gust Speed Precip Events Conditions
12:00 AM 35.6 °F 29.2 °F 28.4 °F 75% 30.15 in 15.0 mi South 8.1 mph - N/A   Overcast
1:00 AM 36 °F - 28 °F 63% 30.13 in 15 mi South 5.8 mph - -   Overcast
1:00 AM 35.6 °F 31.7 °F 28.4 °F 75% 30.13 in 15.0 mi South 4.6 mph - N/A   Overcast
2:00 AM 35.6 °F 32.8 °F 28.4 °F 75% 30.12 in 15.0 mi SSW 3.5 mph - N/A   Overcast
3:00 AM 35.6 °F - 28.4 °F 75% 30.11 in 15.0 mi Calm Calm - N/A   Overcast
4:00 AM 35.6 °F 31.7 °F 28.4 °F 75% 30.09 in 15.0 mi SSE 4.6 mph - N/A   Overcast
5:00 AM 35.6 °F 29.9 °F 30.2 °F 81% 30.08 in 15.0 mi SSW 6.9 mph - N/A   Overcast
6:00 AM 35.6 °F - 30.2 °F 81% 30.08 in 15.0 mi SE 2.3 mph - N/A   Overcast
7:00 AM 35 °F - 30 °F 74% 30.07 in 15 mi South 4.6 mph - -   Overcast
7:00 AM 35.6 °F 31.7 °F 30.2 °F 81% 30.07 in 15.0 mi South 4.6 mph - N/A   Overcast
8:00 AM 35.6 °F 32.8 °F 30.2 °F 81% 30.07 in 15.0 mi South 3.5 mph - N/A   Overcast
8:25 AM 35.6 °F - 30.2 °F 81% 30.07 in 8.0 mi SSE 2.3 mph - N/A Rain Light Rain
9:00 AM 35.6 °F 32.8 °F 32.0 °F 87% 30.06 in 8.0 mi SE 3.5 mph - N/A Rain Light Rain
10:00 AM 37.4 °F 33.8 °F 33.8 °F 87% 30.04 in 6.0 mi ESE 4.6 mph - N/A Rain Light Rain
11:00 AM 37.4 °F 34.9 °F 33.8 °F 87% 30.05 in 6.0 mi WSW 3.5 mph - N/A Rain Light Rain
11:45 AM 37.4 °F 33.8 °F 35.6 °F 93% 30.04 in 5.0 mi WSW 4.6 mph - N/A Rain Light Rain
12:00 PM 37.4 °F 31.4 °F 33.8 °F 87% 30.03 in 5.0 mi WSW 8.1 mph - N/A Rain Light Rain
1:00 PM 37 °F - 35 °F 88% 30.02 in 5 mi West 1.2 mph - - Rain Light Rain
1:00 PM 37.4 °F - 33.8 °F 87% 30.02 in 5.0 mi Calm Calm - N/A Rain Light Rain
1:40 PM 37.4 °F 33.8 °F 33.8 °F 87% 30.00 in 5.0 mi South 4.6 mph - N/A Rain Light Rain
2:00 PM 37.4 °F 34.9 °F 33.8 °F 87% 30.00 in 5.0 mi SSW 3.5 mph - N/A Rain Light Rain
3:00 PM 37.4 °F 34.9 °F 33.8 °F 87% 29.99 in 5.0 mi South 3.5 mph - N/A Rain Light Rain
3:30 PM 37.4 °F - 33.8 °F 87% 29.99 in 6.0 mi South 2.3 mph - N/A   Light Drizzle
4:00 PM 37.4 °F - 33.8 °F 87% 29.99 in 5.0 mi SSW 2.3 mph - N/A   Overcast
5:00 PM 37.4 °F 34.9 °F 33.8 °F 87% 29.99 in 5.0 mi SSE 3.5 mph - N/A   Overcast
5:07 PM 37.4 °F 34.9 °F 33.8 °F 87% 29.99 in 5.0 mi SSE 3.5 mph - N/A   Overcast
6:00 PM 37.4 °F 34.9 °F 33.8 °F 87% 29.99 in 6.0 mi South 3.5 mph - N/A   Overcast
6:48 PM 37.4 °F 34.9 °F 33.8 °F 87% 29.99 in 7.0 mi WSW 3.5 mph - N/A   Overcast
7:00 PM 37 °F - 34 °F 83% 29.99 in 7 mi WSW 2.3 mph - -   Partly Cloudy
7:00 PM 37.4 °F - 33.8 °F 87% 29.99 in 7.0 mi Calm Calm - N/A   Overcast
8:00 PM 35.6 °F 31.7 °F 33.8 °F 93% 29.98 in 6.0 mi WNW 4.6 mph - N/A   Overcast
9:00 PM 37.4 °F - 33.8 °F 87% 29.97 in 6.0 mi West 2.3 mph - N/A   Overcast
10:00 PM 35.6 °F - 33.8 °F 93% 29.97 in 6.0 mi West 2.3 mph - N/A   Overcast
10:28 PM 35.6 °F 31.7 °F 33.8 °F 93% 29.96 in 6.0 mi West 4.6 mph - N/A   Overcast
10:37 PM 35.6 °F 32.8 °F 33.8 °F 93% 29.96 in 6.0 mi WNW 3.5 mph - N/A   Overcast
11:00 PM 35.6 °F 29.9 °F 33.8 °F 93% 29.96 in 5.0 mi WNW 6.9 mph - N/A   Overcast